Millville, NJ

7:32 PM EST on February 26, 2017 (GMT -0500)
Millville Municipal

Weather History for KMIV - October, 2012

Change the Weather History Date:

Monday, October 15, 2012

  Actual Average Record
Temperature  
Mean Temperature 66 °F -  
Max Temperature 73 °F 71 °F 86 °F (1985)
Min Temperature 59 °F 46 °F 28 °F (2006)
Cooling Degree Days 2    
Growing Degree Days 16 (Base 50)    
Moisture  
Dew Point 59 °F    
Average Humidity 83    
Maximum Humidity 96    
Minimum Humidity 57    
Precipitation  
Precipitation 0.17 in - - ()
Sea Level Pressure  
Sea Level Pressure 29.78 in    
Wind  
Wind Speed 6 mph (WSW)    
Max Wind Speed 12 mph    
Max Gust Speed 20 mph    
Visibility 8 miles    
Events Rain    
Averages and records for this station are not official NWS values.
T = Trace of Precipitation, MM = Missing Value Source: NWS Daily Summary

Daily Weather History Graph

Daily Weather History Graph

Search for Another Location

Airport or City:

Trip Planner

Search our weather history database for the weather conditions in past years. The results will help you decide how hot, cold, wet, or windy it might be!

Date:

Astronomy

Oct. 15, 2012 Rise Set
Actual Time 7:10 AM EDT 6:20 PM EDT
Civil Twilight 6:43 AM EDT 6:47 PM EDT
Nautical Twilight 6:12 AM EDT 7:18 PM EDT
Astronomical Twilight 5:41 AM EDT 7:49 PM EDT
Moon 7:17 AM EDT (10/15) 6:19 PM EDT (10/15)
Length of Visible Light 12h 04m
Length of Day
11h 10m
New Moon, 0% of the Moon is Illuminated
Oct 15
New Moon
Oct 21
First Quarter
Oct 29
Full
Nov 6
Last Quarter
Nov 13
New

Hourly Weather History & Observations

Time (EDT) Temp. Dew Point Humidity Pressure Visibility Wind Dir Wind Speed Gust Speed Precip Events Conditions
12:54 AM 64.0 °F 57.9 °F 80% 29.96 in 10.0 mi Variable 6.9 mph - N/A   Partly Cloudy
1:54 AM 64.0 °F 57.9 °F 80% 29.94 in 10.0 mi South 8.1 mph - N/A   Scattered Clouds
2:54 AM 64.9 °F 57.9 °F 78% 29.92 in 10.0 mi Variable 5.8 mph - N/A   Overcast
3:54 AM 64.9 °F 57.9 °F 78% 29.88 in 10.0 mi Variable 4.6 mph - N/A   Overcast
4:54 AM 64.9 °F 57.9 °F 78% 29.86 in 10.0 mi South 9.2 mph - N/A   Overcast
5:54 AM 64.9 °F 57.9 °F 78% 29.85 in 10.0 mi Variable 5.8 mph - N/A   Overcast
6:54 AM 64.0 °F 57.9 °F 80% 29.84 in 10.0 mi Variable 3.5 mph - N/A   Clear
7:54 AM 64.0 °F 57.9 °F 80% 29.83 in 10.0 mi Variable 5.8 mph - N/A   Clear
8:54 AM 66.0 °F 57.9 °F 75% 29.83 in 10.0 mi Variable 3.5 mph - N/A   Clear
9:54 AM 66.0 °F 59.0 °F 78% 29.83 in 10.0 mi Calm Calm - N/A   Clear
10:54 AM 66.9 °F 57.9 °F 73% 29.80 in 10.0 mi SSW 6.9 mph - 0.00 in   Scattered Clouds
11:54 AM 73.9 °F 57.9 °F 57% 29.78 in 10.0 mi Variable 6.9 mph - N/A   Partly Cloudy
12:54 PM 71.1 °F 60.1 °F 68% 29.76 in 10.0 mi WSW 6.9 mph - N/A   Overcast
1:54 PM 71.1 °F 60.1 °F 68% 29.72 in 10.0 mi WSW 9.2 mph 19.6 mph N/A   Mostly Cloudy
2:54 PM 71.1 °F 60.1 °F 68% 29.72 in 10.0 mi WSW 11.5 mph 17.3 mph N/A   Overcast
3:54 PM 66.9 °F 61.0 °F 81% 29.70 in 6.0 mi SSW 4.6 mph - 0.01 in Rain Light Rain
4:54 PM 64.9 °F 61.0 °F 87% 29.70 in 10.0 mi SW 4.6 mph - 0.01 in Rain Light Rain
5:54 PM 64.0 °F 61.0 °F 90% 29.70 in 10.0 mi Calm Calm - 0.00 in   Overcast
6:54 PM 62.1 °F 61.0 °F 96% 29.68 in 10.0 mi Calm Calm - 0.01 in   Mostly Cloudy
7:54 PM 62.1 °F 61.0 °F 96% 29.70 in 10.0 mi WSW 3.5 mph - N/A   Overcast
8:50 PM 62.6 °F 60.8 °F 94% 29.71 in 5.0 mi WNW 5.8 mph - 0.02 in Rain Rain
8:54 PM 62.1 °F 61.0 °F 96% 29.71 in 2.5 mi WNW 5.8 mph - 0.06 in Rain Heavy Rain
8:59 PM 62.6 °F 60.8 °F 94% 29.71 in 1.8 mi WNW 6.9 mph - 0.02 in Rain Heavy Rain
9:06 PM 62.6 °F 60.8 °F 94% 29.71 in 3.0 mi West 5.8 mph - 0.03 in Rain Rain
9:54 PM 62.1 °F 60.1 °F 93% 29.71 in 9.0 mi NW 6.9 mph - 0.07 in Rain Light Rain
10:54 PM 60.1 °F 59.0 °F 96% 29.71 in 4.0 mi Calm Calm - 0.01 in   Overcast
11:54 PM 59.0 °F 57.9 °F 96% 29.73 in 6.0 mi West 4.6 mph - N/A   Overcast